TimePDT,TemperatureF,Dew PointF,Humidity,Sea Level PressureIn,VisibilityMPH,Wind Direction,Wind SpeedMPH,Gust SpeedMPH,PrecipitationIn,Events,Conditions,WindDirDegrees,DateUTC
12:58 AM,53.4,36.1,52,30.22,10.0,West,4.6,-,N/A,,Clear,270,2013-03-14 07:58:00
1:58 AM,51.4,34.5,52,30.22,10.0,West,1.2,-,N/A,,Clear,270,2013-03-14 08:58:00
2:58 AM,50.0,32.0,50,30.21,10.0,Calm,Calm,-,N/A,,Clear,0,2013-03-14 09:58:00
3:58 AM,47.3,31.8,55,30.21,10.0,WSW,4.6,-,N/A,,Clear,240,2013-03-14 10:58:00
4:58 AM,46.2,31.5,56,30.22,10.0,WSW,1.2,-,N/A,,Clear,250,2013-03-14 11:58:00
5:58 AM,45.9,35.4,67,30.23,10.0,Calm,Calm,-,N/A,,Clear,0,2013-03-14 12:58:00
6:58 AM,44.1,32.2,63,30.24,10.0,Calm,Calm,-,N/A,,Clear,0,2013-03-14 13:58:00
7:58 AM,46.2,34.5,64,30.26,10.0,Calm,Calm,-,N/A,,Clear,0,2013-03-14 14:58:00
8:58 AM,62.6,35.6,37,30.29,6.2,North,1.2,-,N/A,,Partly Cloudy,350,2013-03-14 15:58:00
9:23 AM,57.2,33.8,41,30.27,10.0,Calm,Calm,-,N/A,,Partly Cloudy,0,2013-03-14 16:23:00
9:58 AM,58.8,33.1,38,30.26,10.0,Calm,Calm,-,N/A,,Clear,0,2013-03-14 16:58:00
10:58 AM,64.6,31.1,29,30.25,10.0,Calm,Calm,-,N/A,,Clear,0,2013-03-14 17:58:00
11:58 AM,69.4,32.2,25,30.23,10.0,West,3.5,-,N/A,,Clear,280,2013-03-14 18:58:00
12:59 PM,75.0,31.3,20,30.20,10.0,WNW,3.5,-,N/A,,Partly Cloudy,300,2013-03-14 19:59:00
1:59 PM,81.0,24.6,13,30.16,10.0,Variable,2.3,-,N/A,,Clear,0,2013-03-14 20:59:00
2:58 PM,81.3,24.6,12,30.14,10.0,East,8.1,-,N/A,,Clear,90,2013-03-14 21:58:00
3:58 PM,81.5,23.0,12,30.13,10.0,Calm,Calm,-,N/A,,Clear,0,2013-03-14 22:58:00
4:58 PM,81.5,23.5,12,30.12,10.0,ENE,3.5,-,N/A,,Clear,60,2013-03-14 23:58:00
5:58 PM,79.3,28.8,16,30.11,10.0,NNE,2.3,-,N/A,,Clear,20,2013-03-15 00:58:00
6:58 PM,73.6,30.2,20,30.10,10.0,East,6.9,-,N/A,,Clear,100,2013-03-15 01:58:00
7:58 PM,69.6,32.5,25,30.11,10.0,West,5.8,-,N/A,,Clear,280,2013-03-15 02:58:00
8:58 PM,68.4,30.6,25,30.12,10.0,East,3.5,-,N/A,,Clear,90,2013-03-15 03:58:00
9:58 PM,64.9,32.0,29,30.13,10.0,South,3.5,-,N/A,,Clear,180,2013-03-15 04:58:00
10:58 PM,62.1,34.5,36,30.12,10.0,West,3.5,-,N/A,,Clear,260,2013-03-15 05:58:00
11:58 PM,61.2,32.5,34,30.11,10.0,Variable,1.2,-,N/A,,Clear,0,2013-03-15 06:58:00